| time (UTC) | temp F | wind direction | speed MPH | gust MPH | rain 1hr in | rain 24hr in | rain mn in | humidity % | barometer mb |
| 20260504222218 | 71 | 243 | 1.0 | 2.0 | 0.00 | 0.02 | 0.00 | 80 | 1020.6 |
| 20260504221545 | 70 | 229 | 1.0 | 5.0 | 0.00 | 0.02 | 0.00 | 84 | 1020.5 |
| 20260504221318 | 70 | 256 | 2.0 | 4.0 | 0.00 | 0.02 | 0.00 | 85 | 1020.7 |
| 20260504220318 | 70 | 226 | 1.0 | 3.0 | 0.00 | 0.02 | 0.00 | 83 | 1020.8 |
| 20260504220046 | 69 | 0 | 1.0 | 4.0 | 0.00 | 0.02 | 0.00 | 83 | 1020.8 |
| 20260504215318 | 69 | 250 | 1.0 | 2.0 | 0.00 | 0.02 | 0.00 | 85 | 1020.8 |
| 20260504214551 | 68 | 254 | 1.0 | 6.0 | 0.00 | 0.02 | 0.00 | 86 | 1020.9 |
| 20260504214339 | 69 | 248 | 2.0 | 6.0 | 0.00 | 0.02 | 0.00 | 86 | 1021.0 |
| 20260504213339 | 69 | 225 | 3.0 | 4.0 | 0.00 | 0.02 | 0.00 | 88 | 1021.0 |
| 20260504213041 | 68 | 258 | 0.0 | 4.0 | 0.00 | 0.02 | 0.00 | 89 | 1021.0 |
| 20260504212318 | 69 | 281 | 2.0 | 4.0 | 0.00 | 0.02 | 0.00 | 90 | 1021.0 |
| 20260504211541 | 67 | 313 | 1.0 | 8.0 | 0.00 | 0.02 | 0.00 | 88 | 1021.1 |
| 20260504211319 | 68 | 238 | 2.0 | 4.0 | 0.00 | 0.02 | 0.00 | 89 | 1021.2 |
| 20260504210318 | 68 | 260 | 1.0 | 3.0 | 0.00 | 0.02 | 0.00 | 92 | 1021.0 |
| 20260504210058 | 67 | 0 | 1.0 | 5.0 | 0.00 | 0.02 | 0.00 | 91 | 1020.9 |
| 20260504205318 | 67 | 219 | 2.0 | 5.0 | 0.00 | 0.02 | 0.00 | 89 | 1021.1 |
| 20260504204557 | 67 | 319 | 1.0 | 6.0 | 0.00 | 0.02 | 0.00 | 90 | 1021.1 |
| 20260504204318 | 67 | 231 | 1.0 | 2.0 | 0.00 | 0.02 | 0.00 | 89 | 1021.2 |
| 20260504203319 | 68 | 288 | 2.0 | 4.0 | 0.00 | 0.02 | 0.00 | 89 | 1021.3 |
| 20260504203056 | 68 | 327 | 1.0 | 5.0 | 0.00 | 0.02 | 0.00 | 88 | 1021.3 |
| 20260504202318 | 68 | 242 | 1.0 | 1.0 | 0.00 | 0.02 | 0.00 | 89 | 1021.3 |
| 20260504201542 | 68 | 236 | 2.0 | 6.0 | 0.00 | 0.02 | 0.00 | 88 | 1021.3 |
| 20260504201318 | 68 | 228 | 2.0 | 4.0 | 0.00 | 0.02 | 0.00 | 91 | 1021.3 |
| 20260504200340 | 67 | 219 | 2.0 | 4.0 | 0.00 | 0.02 | 0.00 | 88 | 1021.3 |
| 20260504200041 | 67 | 216 | 3.0 | 6.0 | 0.00 | 0.02 | 0.00 | 87 | 1021.2 |
| 20260504195318 | 68 | 307 | 2.0 | 3.0 | 0.00 | 0.02 | 0.00 | 88 | 1021.2 |
| 20260504194547 | 67 | 312 | 0.0 | 7.0 | 0.00 | 0.02 | 0.00 | 87 | 1021.2 |
| 20260504194318 | 67 | 220 | 0.0 | 3.0 | 0.00 | 0.02 | 0.00 | 88 | 1021.2 |
| 20260504193318 | 67 | 279 | 1.0 | 2.0 | 0.00 | 0.02 | 0.00 | 87 | 1021.2 |
| 20260504193044 | 66 | 0 | 0.0 | 4.0 | 0.00 | 0.02 | 0.00 | 87 | 1021.1 |
| 20260504192318 | 67 | 328 | 2.0 | 3.0 | 0.00 | 0.02 | 0.00 | 88 | 1021.2 |
| 20260504191542 | 67 | 307 | 2.0 | 5.0 | 0.00 | 0.02 | 0.00 | 86 | 1021.1 |
| 20260504191339 | 67 | 226 | 3.0 | 4.0 | 0.00 | 0.02 | 0.00 | 86 | 1021.2 |
| 20260504190318 | 67 | 327 | 2.0 | 6.0 | 0.00 | 0.02 | 0.00 | 85 | 1021.3 |
| 20260504190042 | 67 | 349 | 2.0 | 6.0 | 0.00 | 0.02 | 0.00 | 82 | 1021.3 |
| 20260504185339 | 68 | 337 | 2.0 | 4.0 | 0.00 | 0.02 | 0.00 | 81 | 1021.4 |
| 20260504184541 | 68 | 307 | 1.0 | 4.0 | 0.00 | 0.02 | 0.00 | 77 | 1021.1 |
| 20260504184318 | 68 | 329 | 1.0 | 2.0 | 0.00 | 0.02 | 0.00 | 79 | 1021.3 |
| 20260504183319 | 67 | 0.0 | 0.0 | 0.00 | 0.02 | 0.00 | 80 | 1021.2 | |
| 20260504183041 | 67 | 0 | 0.0 | 4.0 | 0.00 | 0.02 | 0.00 | 80 | 1021.2 |
| 20260504182339 | 67 | 356 | 3.0 | 4.0 | 0.00 | 0.02 | 0.00 | 75 | 1021.2 |
| 20260504181545 | 67 | 327 | 1.0 | 4.0 | 0.00 | 0.02 | 0.00 | 72 | 1021.3 |
| 20260504181318 | 67 | 329 | 1.0 | 3.0 | 0.00 | 0.02 | 0.00 | 72 | 1021.3 |
| 20260504180340 | 66 | 249 | 1.0 | 1.0 | 0.00 | 0.02 | 0.00 | 79 | 1021.2 |
| 20260504180044 | 66 | 0 | 0.0 | 2.0 | 0.00 | 0.02 | 0.00 | 77 | 1021.1 |
| 20260504175318 | 65 | 0.0 | 0.0 | 0.00 | 0.02 | 0.00 | 82 | 1021.1 | |
| 20260504174543 | 64 | 0 | 0.0 | 3.0 | 0.00 | 0.02 | 0.00 | 78 | 1020.9 |
| 20260504174319 | 64 | 0.0 | 2.0 | 0.00 | 0.02 | 0.00 | 78 | 1021.0 | |
| 20260504173339 | 62 | 19 | 3.0 | 3.0 | 0.00 | 0.02 | 0.00 | 80 | 1020.9 |
| 20260504173049 | 62 | 27 | 1.0 | 2.0 | 0.00 | 0.02 | 0.00 | 80 | 1020.9 |
| 20260504172617 | 61 | 141 | 0.0 | 1.0 | 0.00 | 0.02 | 0.00 | 81 | 1021.0 |
| 20260504171638 | 60 | 130 | 2.0 | 3.0 | 0.00 | 0.02 | 0.00 | 80 | 1020.8 |
| 20260504171542 | 59 | 125 | 1.0 | 3.0 | 0.00 | 0.02 | 0.00 | 80 | 1020.8 |
| 20260504170618 | 59 | 112 | 2.0 | 3.0 | 0.00 | 0.02 | 0.00 | 81 | 1020.7 |
| 20260504150718 | 57 | 114 | 3.0 | 4.0 | 0.00 | 0.02 | 0.00 | 85 | 1019.5 |
| 20260504140717 | 57 | 98 | 3.0 | 4.0 | 0.00 | 0.02 | 0.00 | 85 | 1019.1 |
| 20260504130718 | 58 | 114 | 2.0 | 4.0 | 0.00 | 0.02 | 0.00 | 87 | 1019.2 |
| 20260504110519 | 58 | 118 | 3.0 | 4.0 | 0.00 | 0.02 | 0.00 | 88 | 1020.1 |
| 20260504100519 | 59 | 101 | 2.0 | 3.0 | 0.00 | 0.02 | 0.00 | 89 | 1020.6 |
| 20260504081541 | 59 | 124 | 2.0 | 4.0 | 0.00 | 0.02 | 0.02 | 89 | 1021.1 |
| 20260504081519 | 59 | 109 | 2.0 | 3.0 | 0.00 | 0.02 | 0.00 | 89 | 1021.1 |
| 20260504080601 | 59 | 102 | 2.0 | 3.0 | 0.00 | 0.02 | 0.00 | 89 | 1021.2 |
| 20260504050518 | 65 | 34 | 1.0 | 2.0 | 0.00 | 0.02 | 0.02 | 91 | 1019.5 |
| 20260504045518 | 65 | 48 | 1.0 | 2.0 | 0.00 | 0.02 | 0.02 | 91 | 1019.5 |
| 20260504044542 | 64 | 0 | 0.0 | 1.0 | 0.00 | 0.02 | 0.02 | 90 | 1019.2 |
| 20260504044539 | 65 | 0.0 | 0.0 | 0.00 | 0.02 | 0.02 | 91 | 1019.3 | |
| 20260504043519 | 65 | 0.0 | 1.0 | 0.00 | 0.02 | 0.02 | 90 | 1019.2 | |
| 20260504043043 | 65 | 0 | 0.0 | 2.0 | 0.00 | 0.02 | 0.02 | 90 | 1019.1 |
| 20260504042519 | 65 | 0.0 | 1.0 | 0.00 | 0.02 | 0.02 | 90 | 1019.1 | |
| 20260504041544 | 65 | 0 | 0.0 | 2.0 | 0.00 | 0.02 | 0.02 | 90 | 1018.9 |
| 20260504041540 | 65 | 16 | 0.0 | 1.0 | 0.00 | 0.02 | 0.02 | 90 | 1019.0 |
| 20260504040519 | 65 | 339 | 1.0 | 1.0 | 0.00 | 0.02 | 0.02 | 90 | 1018.7 |
| 20260504040044 | 64 | 0 | 0.0 | 2.0 | 0.00 | 0.02 | 0.02 | 89 | 1018.6 |
| 20260504035517 | 65 | 352 | 0.0 | 2.0 | 0.00 | 0.02 | 0.02 | 90 | 1018.6 |
| 20260504034552 | 64 | 147 | 0.0 | 6.0 | 0.01 | 0.02 | 0.02 | 89 | 1018.4 |
| 20260504034519 | 64 | 103 | 1.0 | 2.0 | 0.01 | 0.02 | 0.02 | 90 | 1018.4 |
| 20260504033519 | 64 | 107 | 2.0 | 4.0 | 0.01 | 0.02 | 0.02 | 92 | 1018.3 |
| 20260504033042 | 64 | 93 | 2.0 | 6.0 | 0.01 | 0.02 | 0.02 | 91 | 1018.3 |
| 20260504032517 | 64 | 120 | 2.0 | 4.0 | 0.01 | 0.02 | 0.02 | 93 | 1018.3 |
| 20260504031543 | 64 | 155 | 2.0 | 6.0 | 0.01 | 0.02 | 0.02 | 94 | 1018.4 |
| 20260504031519 | 64 | 172 | 2.0 | 6.0 | 0.01 | 0.02 | 0.02 | 94 | 1018.4 |
| 20260504030540 | 64 | 187 | 2.0 | 4.0 | 0.02 | 0.02 | 0.02 | 94 | 1018.4 |
| 20260504030042 | 63 | 196 | 1.0 | 6.0 | 0.02 | 0.02 | 0.02 | 93 | 1018.3 |
| 20260504025519 | 64 | 167 | 2.0 | 4.0 | 0.02 | 0.02 | 0.02 | 94 | 1018.4 |
| 20260504024540 | 64 | 200 | 2.0 | 2.0 | 0.01 | 0.01 | 0.01 | 94 | 1018.5 |
| 20260504023539 | 64 | 163 | 1.0 | 3.0 | 0.01 | 0.01 | 0.01 | 93 | 1018.4 |
| 20260504023045 | 64 | 169 | 2.0 | 6.0 | 0.01 | 0.01 | 0.01 | 93 | 1018.3 |
| 20260504022518 | 64 | 186 | 1.0 | 3.0 | 0.01 | 0.01 | 0.01 | 94 | 1018.4 |
| 20260504021546 | 64 | 206 | 2.0 | 5.0 | 0.01 | 0.01 | 0.01 | 93 | 1018.5 |
| 20260504021540 | 65 | 214 | 1.0 | 3.0 | 0.01 | 0.01 | 0.01 | 93 | 1018.5 |
| 20260504020519 | 65 | 218 | 4.0 | 5.0 | 0.00 | 0.00 | 0.00 | 92 | 1018.3 |
| 20260504020044 | 65 | 331 | 3.0 | 8.0 | 0.00 | 0.00 | 0.00 | 91 | 1018.4 |
| 20260504015540 | 66 | 217 | 4.0 | 6.0 | 0.00 | 0.00 | 0.00 | 91 | 1018.4 |
| 20260504014542 | 66 | 352 | 1.0 | 9.0 | 0.00 | 0.00 | 0.00 | 89 | 1018.3 |
| 20260504014519 | 66 | 249 | 1.0 | 1.0 | 0.00 | 0.00 | 0.00 | 89 | 1018.4 |
| 20260504013519 | 66 | 272 | 1.0 | 4.0 | 0.00 | 0.00 | 0.00 | 89 | 1018.4 |
| 20260504013055 | 66 | 215 | 1.0 | 10.0 | 0.00 | 0.00 | 0.00 | 90 | 1018.4 |
| 20260504012540 | 66 | 211 | 4.0 | 7.0 | 0.00 | 0.00 | 0.00 | 89 | 1018.4 |
| 20260504011536 | 67 | 200 | 2.0 | 8.0 | 0.00 | 0.00 | 0.00 | 86 | 1018.3 |
| 20260504011518 | 67 | 210 | 4.0 | 6.0 | 0.00 | 0.00 | 0.00 | 87 | 1018.3 |
| 20260504010738 | 67 | 232 | 2.0 | 6.0 | 0.00 | 0.00 | 0.00 | 84 | 1018.3 |
| 20260504010045 | 67 | 0 | 4.0 | 10.0 | 0.00 | 0.00 | 0.00 | 85 | 1018.4 |
| 20260504005717 | 67 | 225 | 3.0 | 5.0 | 0.00 | 0.00 | 0.00 | 86 | 1018.4 |
| 20260504004716 | 68 | 235 | 3.0 | 6.0 | 0.00 | 0.00 | 0.00 | 86 | 1018.5 |
| 20260504004543 | 67 | 184 | 2.0 | 10.0 | 0.00 | 0.00 | 0.00 | 86 | 1018.5 |
| 20260504003716 | 68 | 224 | 5.0 | 8.0 | 0.00 | 0.00 | 0.00 | 85 | 1018.3 |
| 20260504003041 | 68 | 229 | 3.0 | 8.0 | 0.00 | 0.00 | 0.00 | 85 | 1018.3 |
| 20260504002717 | 68 | 208 | 4.0 | 8.0 | 0.00 | 0.00 | 0.00 | 84 | 1018.4 |
| 20260504001717 | 68 | 220 | 3.0 | 7.0 | 0.00 | 0.00 | 0.00 | 84 | 1018.4 |
| 20260504001543 | 68 | 215 | 4.0 | 11.0 | 0.00 | 0.00 | 0.00 | 84 | 1018.4 |
| 20260504000717 | 69 | 217 | 6.0 | 11.0 | 0.00 | 0.00 | 0.00 | 85 | 1018.5 |
| 20260504000041 | 69 | 202 | 4.0 | 12.0 | 0.00 | 0.00 | 0.00 | 84 | 1018.5 |
| 20260503235717 | 69 | 217 | 4.0 | 9.0 | 0.00 | 0.00 | 0.00 | 85 | 1018.6 |
| 20260503234717 | 70 | 207 | 6.0 | 9.0 | 0.00 | 0.00 | 0.00 | 83 | 1018.6 |
| 20260503234545 | 70 | 227 | 3.0 | 11.0 | 0.00 | 0.00 | 0.00 | 84 | 1018.6 |
| 20260503233717 | 69 | 226 | 4.0 | 9.0 | 0.00 | 0.00 | 0.00 | 83 | 1018.7 |
| 20260503233045 | 69 | 200 | 4.0 | 11.0 | 0.00 | 0.00 | 0.00 | 82 | 1018.7 |
| 20260503232738 | 70 | 210 | 4.0 | 11.0 | 0.00 | 0.00 | 0.00 | 85 | 1018.7 |
| 20260503231716 | 70 | 231 | 2.0 | 5.0 | 0.00 | 0.00 | 0.00 | 83 | 1018.7 |
| 20260503231542 | 69 | 283 | 3.0 | 9.0 | 0.00 | 0.00 | 0.00 | 83 | 1018.7 |
| 20260503230719 | 70 | 232 | 3.0 | 6.0 | 0.00 | 0.00 | 0.00 | 82 | 1018.8 |
| 20260503230042 | 70 | 296 | 2.0 | 8.0 | 0.00 | 0.00 | 0.00 | 81 | 1018.7 |
| 20260503225738 | 71 | 219 | 5.0 | 8.0 | 0.00 | 0.00 | 0.00 | 81 | 1018.9 |
| 20260503224717 | 70 | 228 | 4.0 | 9.0 | 0.00 | 0.00 | 0.00 | 81 | 1018.8 |
| 20260503224540 | 69 | 222 | 3.0 | 9.0 | 0.00 | 0.00 | 0.00 | 82 | 1018.8 |
| 20260503223759 | 69 | 235 | 2.0 | 4.0 | 0.00 | 0.00 | 0.00 | 86 | 1018.9 |
| 20260503223045 | 69 | 175 | 2.0 | 8.0 | 0.00 | 0.00 | 0.00 | 80 | 1019.1 |